BOX116 EDDP-EBBR

Flight info

Callsign BOX116
Flight time 0h 50m
Altitude 30000
Route ORTAG5S ORTAG Q230 KUMER DCT WRB DCT ABAMI Z717 NEREL T855 BATTY
Aircraft B77L/H-SDE1E2E3FGHIJ2J3J4J5M1RWXY/LB1D1

Departure

Time 2026-05-06 12:36
Airport Leipzig/Halle Airport (EDDP)

Arrival

Time 2026-05-06 13:26
Airport Brussels Airport (EBBR)
Time Latitude Longitude Altitude Speed Heading
2026-05-06 12:13 51.40842 12.24523 469 ft 0 kts 265°
2026-05-06 12:27 51.40842 12.24525 469 ft 1 kts 265°
2026-05-06 12:27 51.40843 12.24551 466 ft 3 kts 265°
2026-05-06 12:28 51.40845 12.24583 463 ft 3 kts 266°
2026-05-06 12:28 51.40845 12.24608 463 ft 3 kts 297°
2026-05-06 12:28 51.40839 12.24623 463 ft 3 kts 339°
2026-05-06 12:28 51.40829 12.24628 462 ft 1 kts 355°
2026-05-06 12:29 51.40811 12.24630 461 ft 3 kts 355°
2026-05-06 12:29 51.40802 12.24631 461 ft 0 kts 355°
2026-05-06 12:31 51.40811 12.24630 461 ft 6 kts 355°
2026-05-06 12:32 51.40888 12.24620 470 ft 16 kts 355°
2026-05-06 12:32 51.41013 12.24605 470 ft 17 kts 355°
2026-05-06 12:32 51.41098 12.24643 470 ft 12 kts 74°
2026-05-06 12:32 51.41105 12.24780 474 ft 12 kts 85°
2026-05-06 12:33 51.41111 12.24917 476 ft 12 kts 86°
2026-05-06 12:33 51.41118 12.25053 469 ft 12 kts 86°
2026-05-06 12:33 51.41124 12.25191 476 ft 12 kts 86°
2026-05-06 12:33 51.41130 12.25327 477 ft 12 kts 85°
2026-05-06 12:34 51.41137 12.25464 476 ft 12 kts 85°
2026-05-06 12:34 51.41142 12.25554 481 ft 12 kts 81°
2026-05-06 12:34 51.41205 12.25624 479 ft 12 kts 359°
2026-05-06 12:34 51.41291 12.25614 477 ft 12 kts 355°
2026-05-06 12:35 51.41371 12.25569 474 ft 12 kts 324°
2026-05-06 12:35 51.41395 12.25445 481 ft 13 kts 260°
2026-05-06 12:35 51.41387 12.25235 476 ft 44 kts 266°
2026-05-06 12:35 51.41334 12.24110 474 ft 158 kts 266°
2026-05-06 12:36 51.41232 12.21858 746 ft 229 kts 267°
2026-05-06 12:36 51.41123 12.19444 2669 ft 202 kts 265°
2026-05-06 12:36 51.41026 12.17325 4520 ft 180 kts 263°
2026-05-06 12:36 51.40930 12.15303 5307 ft 191 kts 263°
2026-05-06 12:37 51.40818 12.13007 5581 ft 224 kts 263°
2026-05-06 12:37 51.40687 12.10334 5968 ft 253 kts 264°
2026-05-06 12:37 51.40551 12.07511 6627 ft 261 kts 264°
2026-05-06 12:37 51.40410 12.04603 6776 ft 265 kts 263°
2026-05-06 12:38 51.40266 12.01644 6782 ft 267 kts 263°
2026-05-06 12:38 51.40121 11.98686 6910 ft 267 kts 263°
2026-05-06 12:38 51.39974 11.95733 7859 ft 266 kts 263°
2026-05-06 12:38 51.39827 11.92781 9003 ft 267 kts 263°
2026-05-06 12:39 51.39676 11.89757 10064 ft 271 kts 263°
2026-05-06 12:39 51.39522 11.86703 10692 ft 290 kts 263°
2026-05-06 12:39 51.39351 11.83308 10928 ft 321 kts 263°
2026-05-06 12:39 51.39162 11.79582 11198 ft 350 kts 264°
2026-05-06 12:40 51.38963 11.75634 11979 ft 361 kts 263°
2026-05-06 12:40 51.38906 11.71579 12850 ft 367 kts 275°
2026-05-06 12:40 51.39460 11.67546 13537 ft 377 kts 282°
2026-05-06 12:40 51.40142 11.63449 14401 ft 382 kts 282°
2026-05-06 12:41 51.40824 11.59310 15379 ft 385 kts 282°
2026-05-06 12:41 51.41499 11.55135 16287 ft 389 kts 281°
2026-05-06 12:41 51.42170 11.50893 17127 ft 395 kts 281°
2026-05-06 12:41 51.42838 11.46601 17984 ft 401 kts 281°
2026-05-06 12:42 51.43512 11.42230 18747 ft 405 kts 281°
2026-05-06 12:42 51.44186 11.37829 19551 ft 408 kts 280°
2026-05-06 12:42 51.44864 11.33380 20347 ft 412 kts 280°
2026-05-06 12:42 51.45543 11.28910 21109 ft 416 kts 280°
2026-05-06 12:43 51.46230 11.24381 21854 ft 420 kts 280°
2026-05-06 12:43 51.46922 11.19810 22601 ft 424 kts 280°
2026-05-06 12:43 51.47619 11.15193 23332 ft 428 kts 280°
2026-05-06 12:43 51.48311 11.10594 23938 ft 432 kts 280°
2026-05-06 12:44 51.49013 11.05827 24559 ft 434 kts 278°
2026-05-06 12:44 51.49599 11.01060 25145 ft 437 kts 277°
2026-05-06 12:44 51.50128 10.96247 25763 ft 440 kts 276°
2026-05-06 12:44 51.50645 10.91461 26339 ft 443 kts 276°
2026-05-06 12:45 51.51184 10.86569 26904 ft 447 kts 276°
2026-05-06 12:45 51.51739 10.81634 27447 ft 451 kts 277°
2026-05-06 12:45 51.52880 10.71636 28515 ft 458 kts 277°
2026-05-06 12:46 51.53436 10.66560 28979 ft 462 kts 275°
2026-05-06 12:46 51.53766 10.61441 29441 ft 463 kts 270°
2026-05-06 12:46 51.53778 10.56284 29811 ft 463 kts 265°
2026-05-06 12:47 51.53578 10.45950 29772 ft 461 kts 265°
2026-05-06 12:47 51.53368 10.35664 29780 ft 461 kts 265°
2026-05-06 12:48 51.53175 10.25329 29783 ft 464 kts 265°
2026-05-06 12:48 51.52986 10.14947 29776 ft 465 kts 265°
2026-05-06 12:49 51.52791 10.04561 29782 ft 466 kts 265°
2026-05-06 12:49 51.52584 9.94137 29774 ft 467 kts 265°
2026-05-06 12:50 51.52368 9.83770 29768 ft 467 kts 265°
2026-05-06 12:50 51.52143 9.73359 29779 ft 467 kts 265°
2026-05-06 12:51 51.51907 9.62926 29775 ft 467 kts 265°
2026-05-06 12:51 51.51661 9.52481 29773 ft 468 kts 266°
2026-05-06 12:52 51.51406 9.42024 29773 ft 469 kts 266°
2026-05-06 12:52 51.51143 9.31606 29778 ft 471 kts 266°
2026-05-06 12:53 51.50869 9.21080 29769 ft 473 kts 266°
2026-05-06 12:53 51.50584 9.10509 29777 ft 475 kts 266°
2026-05-06 12:54 51.50216 8.99914 29776 ft 476 kts 265°
2026-05-06 12:54 51.49796 8.89307 29789 ft 476 kts 265°
2026-05-06 12:55 51.49373 8.78701 29797 ft 476 kts 266°
2026-05-06 12:55 51.48950 8.68078 29800 ft 477 kts 266°
2026-05-06 12:56 51.48520 8.57459 29800 ft 478 kts 266°
2026-05-06 12:56 51.48078 8.46797 29802 ft 479 kts 266°
2026-05-06 12:57 51.47626 8.36111 29794 ft 480 kts 266°
2026-05-06 12:57 51.47163 8.25415 29799 ft 481 kts 266°
2026-05-06 12:58 51.46689 8.14708 29795 ft 481 kts 266°
2026-05-06 12:58 51.46209 8.04060 29817 ft 482 kts 266°
2026-05-06 12:59 51.45715 7.93334 29814 ft 483 kts 266°
2026-05-06 12:59 51.45211 7.82597 29829 ft 483 kts 265°
2026-05-06 13:00 51.44696 7.71850 29835 ft 484 kts 265°
2026-05-06 13:00 51.44172 7.61100 29823 ft 485 kts 265°
2026-05-06 13:01 51.43636 7.50322 29823 ft 486 kts 265°
2026-05-06 13:01 51.43091 7.39532 29819 ft 485 kts 265°
2026-05-06 13:02 51.41872 7.28946 29821 ft 484 kts 249°
2026-05-06 13:02 51.38703 7.19521 29823 ft 482 kts 232°
2026-05-06 13:03 51.34631 7.10991 29849 ft 483 kts 231°
2026-05-06 13:03 51.30545 7.02417 29846 ft 484 kts 232°
2026-05-06 13:04 51.26543 6.93906 29846 ft 480 kts 232°
2026-05-06 13:04 51.22552 6.85398 29852 ft 477 kts 232°
2026-05-06 13:05 51.18583 6.76961 29871 ft 475 kts 232°
2026-05-06 13:05 51.16589 6.72738 29353 ft 481 kts 232°
2026-05-06 13:05 51.14585 6.68498 28646 ft 478 kts 232°
2026-05-06 13:05 51.12593 6.64288 27991 ft 470 kts 232°
2026-05-06 13:06 51.10637 6.60166 27385 ft 463 kts 232°
2026-05-06 13:06 51.08669 6.56156 26699 ft 457 kts 229°
2026-05-06 13:06 51.06503 6.52488 26056 ft 451 kts 224°
2026-05-06 13:06 51.04273 6.49011 25431 ft 447 kts 224°
2026-05-06 13:07 51.02055 6.45570 24870 ft 442 kts 224°
2026-05-06 13:07 50.99860 6.42153 24226 ft 440 kts 225°
2026-05-06 13:07 50.97678 6.38742 23613 ft 439 kts 225°
2026-05-06 13:07 50.95511 6.35345 22934 ft 437 kts 225°
2026-05-06 13:08 50.93385 6.32008 22295 ft 434 kts 225°
2026-05-06 13:08 50.91231 6.28627 21698 ft 429 kts 225°
2026-05-06 13:08 50.89145 6.25357 21133 ft 424 kts 225°
2026-05-06 13:08 50.87053 6.22082 20556 ft 421 kts 225°
2026-05-06 13:09 50.84984 6.18848 19987 ft 417 kts 225°
2026-05-06 13:09 50.82925 6.15635 19428 ft 414 kts 225°
2026-05-06 13:09 50.80887 6.12457 18881 ft 410 kts 225°
2026-05-06 13:09 50.78859 6.09298 18331 ft 408 kts 225°
2026-05-06 13:10 50.76842 6.06164 17722 ft 405 kts 226°
2026-05-06 13:10 50.74853 6.03035 17131 ft 401 kts 227°
2026-05-06 13:10 50.73013 5.99740 16564 ft 397 kts 230°
2026-05-06 13:10 50.71224 5.96433 16016 ft 394 kts 230°
2026-05-06 13:11 50.69440 5.93160 15494 ft 392 kts 230°
2026-05-06 13:11 50.67761 5.89845 14914 ft 376 kts 239°
2026-05-06 13:11 50.66841 5.86123 14424 ft 363 kts 259°
2026-05-06 13:11 50.66688 5.82169 13968 ft 362 kts 272°
2026-05-06 13:12 50.67058 5.78250 13453 ft 363 kts 285°
2026-05-06 13:12 50.68044 5.74609 12951 ft 361 kts 296°
2026-05-06 13:12 50.69191 5.71112 12435 ft 365 kts 297°
2026-05-06 13:12 50.70379 5.67558 11878 ft 367 kts 298°
2026-05-06 13:13 50.71560 5.64004 11396 ft 364 kts 298°
2026-05-06 13:13 50.72719 5.60472 10886 ft 362 kts 298°
2026-05-06 13:13 50.73853 5.56981 10694 ft 352 kts 298°
2026-05-06 13:13 50.74935 5.53618 10511 ft 325 kts 298°
2026-05-06 13:14 50.75900 5.50601 10453 ft 302 kts 298°
2026-05-06 13:14 50.76831 5.47685 10372 ft 293 kts 298°
2026-05-06 13:14 50.77732 5.44861 10268 ft 283 kts 298°
2026-05-06 13:14 50.78598 5.42139 10129 ft 273 kts 298°
2026-05-06 13:15 50.79445 5.39477 10053 ft 271 kts 298°
2026-05-06 13:15 50.80288 5.36824 9910 ft 271 kts 298°
2026-05-06 13:15 50.81128 5.34176 9655 ft 266 kts 298°
2026-05-06 13:15 50.81954 5.31567 9284 ft 262 kts 298°
2026-05-06 13:16 50.82770 5.28990 8985 ft 264 kts 298°
2026-05-06 13:16 50.83597 5.26376 8672 ft 267 kts 298°
2026-05-06 13:16 50.84426 5.23752 8433 ft 267 kts 298°
2026-05-06 13:16 50.85251 5.21134 8181 ft 266 kts 298°
2026-05-06 13:17 50.86072 5.18529 7855 ft 264 kts 298°
2026-05-06 13:17 50.86885 5.15942 7558 ft 262 kts 298°
2026-05-06 13:17 50.87691 5.13396 7233 ft 261 kts 300°
2026-05-06 13:17 50.88615 5.10940 6939 ft 258 kts 305°
2026-05-06 13:18 50.88946 5.10130 6846 ft 258 kts 305°
2026-05-06 13:18 50.89743 5.08202 6604 ft 257 kts 306°
2026-05-06 13:18 50.90718 5.05833 6322 ft 256 kts 305°
2026-05-06 13:18 50.91680 5.03466 6023 ft 255 kts 305°
2026-05-06 13:19 50.92633 5.01101 5748 ft 253 kts 305°
2026-05-06 13:19 50.93577 4.98752 5482 ft 253 kts 305°
2026-05-06 13:19 50.94516 4.96407 5239 ft 251 kts 306°
2026-05-06 13:19 50.95430 4.94123 5091 ft 238 kts 306°
2026-05-06 13:20 50.96283 4.91984 4961 ft 222 kts 306°
2026-05-06 13:20 50.97095 4.89952 4922 ft 218 kts 306°
2026-05-06 13:20 50.97891 4.87894 4763 ft 220 kts 300°
2026-05-06 13:20 50.98255 4.85504 4496 ft 226 kts 281°
2026-05-06 13:21 50.98347 4.83855 4326 ft 228 kts 279°
2026-05-06 13:21 50.98466 4.81353 4118 ft 224 kts 279°
2026-05-06 13:21 50.98590 4.78941 3832 ft 213 kts 279°
2026-05-06 13:21 50.98558 4.76654 3547 ft 206 kts 260°
2026-05-06 13:22 50.98120 4.74505 3316 ft 206 kts 255°
2026-05-06 13:22 50.97600 4.72368 3075 ft 208 kts 251°
2026-05-06 13:22 50.97019 4.70293 2825 ft 202 kts 249°
2026-05-06 13:22 50.96450 4.68324 2569 ft 191 kts 248°
2026-05-06 13:23 50.95917 4.66475 2306 ft 178 kts 249°
2026-05-06 13:23 50.95401 4.64684 2116 ft 176 kts 250°
2026-05-06 13:23 50.94911 4.62982 1936 ft 164 kts 249°
2026-05-06 13:23 50.94453 4.61391 1742 ft 153 kts 250°
2026-05-06 13:24 50.94016 4.59868 1522 ft 151 kts 250°
2026-05-06 13:24 50.93580 4.58347 1319 ft 152 kts 249°
2026-05-06 13:24 50.93142 4.56832 1115 ft 151 kts 249°
2026-05-06 13:24 50.92710 4.55325 856 ft 148 kts 249°
2026-05-06 13:25 50.92279 4.53835 694 ft 149 kts 249°
2026-05-06 13:25 50.91841 4.52324 453 ft 150 kts 248°
2026-05-06 13:25 50.91418 4.50832 299 ft 149 kts 246°
2026-05-06 13:25 50.90976 4.49340 123 ft 145 kts 250°
2026-05-06 13:26 50.90616 4.48067 122 ft 102 kts 245°
2026-05-06 13:26 50.90396 4.47311 125 ft 51 kts 245°
2026-05-06 13:26 50.90289 4.46943 126 ft 23 kts 245°
2026-05-06 13:26 50.90280 4.46765 125 ft 15 kts 290°
2026-05-06 13:27 50.90322 4.46623 129 ft 12 kts 297°
2026-05-06 13:27 50.90348 4.46542 128 ft 6 kts 294°
2026-05-06 13:27 50.90360 4.46482 134 ft 6 kts 282°
2026-05-06 13:27 50.90361 4.46432 136 ft 4 kts 265°
2026-05-06 13:28 50.90356 4.46391 136 ft 4 kts 256°
2026-05-06 13:28 50.90347 4.46352 137 ft 4 kts 247°
2026-05-06 13:28 50.90342 4.46311 137 ft 4 kts 274°
2026-05-06 13:28 50.90357 4.46277 137 ft 4 kts 324°
2026-05-06 13:29 50.90382 4.46264 137 ft 2 kts 340°
2026-05-06 13:29 50.90396 4.46255 137 ft 2 kts 338°
2026-05-06 13:29 50.90411 4.46245 137 ft 2 kts 336°
2026-05-06 13:29 50.90418 4.46240 137 ft 0 kts 336°